User: anonymous   Login
Location: Caltech
(34.1382°N, 118.1253°W)
Time: 05:27:00
(UTC-08:00)
Language:

ADEOS II - Orbit

View from above orbital plane
View from above orbital plane
View from above satellite
View from above satellite

Ground track
Ground track

The orbit data is extracted from the following two-line orbital elements,

1 27597U 02056A   14354.05197683  .00000572  00000-0  25202-3 0  4789
2 27597 098.2785 351.9886 0002115 113.6674 313.8408 14.26956509625599
Epoch (UTC): 20 December 2014 01:14:50
Eccentricity: 0.0002115
inclination: 98.2785°
perigee height: 800 km
apogee height: 803 km
right ascension of ascending node: 351.9886°
argument of perigee: 113.6674°
revolutions per day: 14.26956509
mean anomaly at epoch: 313.8408°
orbit number at epoch: 62559

The dashed part of the orbit path shows where the satellite is in the earth's shadow,  

DLR